{"data":{"norad_id":48426,"intl_designator":"2021-039D","name":"TIANQI-12","alt_names":[],"object_type":"PAYLOAD","status":"ACTIVE","operator":null,"country":"PRC","launch_date":"2021-05-06","launch_site_code":"XICLF","launch_vehicle":null,"mission":null,"orbit_class":"UNKNOWN","rcs_meters":null,"size_class":null,"mass_kg":null,"dimensions":null,"purposes":[],"wikipedia_slug":null,"has_3d_model":false,"image_url":null,"decayed_at":null,"tle_current":{"epoch":"2026-09-21T21:10:15.619872Z","epoch_age_seconds":64906,"freshness":"FRESH","line1":"1 48426U 21039D   26264.88212523  .00003965  00000+0  22174-3 0  9991","line2":"2 48426  34.9977  87.3420 0003167  70.5769 289.5285 15.12947534294870","mean_motion":15.12947534,"eccentricity":0.0003167,"inclination_deg":34.9977,"raan_deg":87.342,"arg_perigee_deg":70.5769,"mean_anomaly_deg":289.5285,"bstar":0.00022174,"rev_number":29487,"period_min":95.178449195318,"perigee_km":525.02978889247,"apogee_km":529.40363993518,"semimajor_km":6905.3537144138,"source":"CELESTRAK","updated_at":"2026-09-22T09:00:23.331064Z"}}}